This is the latest recevied weather packets stored in our database for station/object WA7SB-7. If no packets are shown the sender has not sent any weather packets the latest 10 day(s).
| Time | Temp. | Humidity | Pressure | Rain* | Wind** | Luminosity | Snow |
|---|---|---|---|---|---|---|---|
| 1788537620 | 13.89° C | 97% | 1010.8 hPa | 1.78 mm | - | - | - |
| 1788537560 | 13.89° C | 97% | 1010.8 hPa | 1.78 mm | - | - | - |
| 1788537321 | 13.33° C | 97% | 1010.8 hPa | 1.78 mm | - | - | - |
| 1788537261 | 13.33° C | 97% | 1010.8 hPa | 1.78 mm | - | - | - |
| 1788537025 | 13.33° C | 97% | 1010.7 hPa | 2.03 mm | - | - | - |
| 1788536966 | 13.33° C | 97% | 1010.8 hPa | 2.03 mm | - | - | - |
| 1788536746 | 13.33° C | 97% | 1010.8 hPa | 2.29 mm | - | - | - |
| 1788536667 | 13.33° C | 97% | 1010.8 hPa | 2.03 mm | - | - | - |
| 1788536428 | 13.33° C | 97% | 1010.7 hPa | 2.03 mm | - | - | - |
| 1788536371 | 13.33° C | 97% | 1010.7 hPa | 2.29 mm | - | - | - |
| 1788536133 | 13.33° C | 97% | 1010.6 hPa | 2.54 mm | - | - | - |
| 1788535814 | 13.33° C | 97% | 1010.5 hPa | 3.81 mm | - | - | - |
| 1788535774 | 13.33° C | 97% | 1010.5 hPa | 3.81 mm | - | - | - |
| 1788535532 | 13.33° C | 97% | 1010.6 hPa | 3.56 mm | - | - | - |
| 1788535453 | 13.33° C | 97% | 1010.5 hPa | 3.3 mm | - | - | - |
| 1788535222 | 12.78° C | 97% | 1010.4 hPa | 3.3 mm | - | - | - |
| 1788535156 | 12.78° C | 97% | 1010.4 hPa | 3.3 mm | - | - | - |
| 1788534915 | 12.78° C | 97% | 1010.4 hPa | 3.3 mm | - | - | - |
| 1788534857 | 12.78° C | 97% | 1010.4 hPa | 3.3 mm | - | - | - |
| 1788534620 | 12.78° C | 97% | 1010.4 hPa | 3.3 mm | - | - | - |
| 1788534562 | 12.78° C | 97% | 1010.4 hPa | 3.3 mm | - | - | - |
| 1788534322 | 12.78° C | 97% | 1010.2 hPa | 3.3 mm | - | - | - |
| 1788534265 | 12.78° C | 97% | 1010.2 hPa | 3.56 mm | - | - | - |
| 1788534015 | 12.78° C | 97% | 1010.1 hPa | 3.81 mm | - | - | - |
| 1788533962 | 12.78° C | 97% | 1010.1 hPa | 3.81 mm | - | - | - |
* Rain latest hour (hover to see other rain measurements)
** Current wind speed in m/s (hover to see current wind gust speed)